Location: Staunton
(38.1490°N, 79.0720°W)
Time: 15:11:27
(UTC-05:00)

ISS - Pass Details

Date: 16 February 2018
Orbit: 403 x 407 km, 51.6° (Epoch: 20 February)

Event Time Altitude Azimuth Distance (km) Brightness Sun altitude
Rises 18:30:03 0° 287° (WNW) 2,314 1.3 -7.4°
Reaches altitude 10° 18:33:39 10° 245° (WSW) 1,449 0.4 -8.1°
Maximum altitude 18:34:19 11° 233° (SW) 1,421 0.0 -8.2°
Drops below altitude 10° 18:34:59 10° 221° (SW) 1,447 -0.2 -8.3°
Sets 18:38:35 0° 179° (S) 2,300 0.1 -9.0°
